Temp
5 5 5 6 5 5 6 6 6 6 6 6 6 7 7 7 7 7 7 8 8 8 8 8 7 7 6 6 6 6 4 6 7 7 8 7 7 7 7 7 7 7 7 7 7
5 5 5 5 5 5 5 5 6 6 6 6 6 6 6 7 7 7 7 7 7 7 7 7 7 6 6 6 5 5 5 7 7 7 7 6 6 6 7 7 7 7 7 7 7
5 5 5 5 5 5 5 5 5 5 5 6 6 6 6 6 7 7 7 7 7 7 6 6 6 5 6 6 6 5 6 7 6 6 5 6 6 6 6 7 7 6 6 6 6
5 5 5 5 5 5 5 6 6 6 6 6 6 6 6 6 6 6 6 7 7 6 6 6 6 5 5 5 5 4 6 6 6 5 5 5 5 5 5 7 6 6 5 6 6
5 5 5 5 6 6 6 6 6 6 6 6 6 6 6 7 7 7 7 7 7 6 5 5 5 5 5 5 5 4 6 5 5 5 4 4 5 4 6 6 6 6 6 6 6
5 5 5 5 5 5 5 5 5 6 6 6 6 6 6 6 6 6 6 6 6 6 6 5 5 5 4 5 5 5 5 5 4 4 4 4 4 3 6 6 6 6 6 6 6
4 5 5 5 5 5 5 5 5 6 6 6 6 6 6 6 6 6 6 6 5 5 5 4 4 4 4 4 4 4 4 4 4 5 4 4 4 5 6 6 7 7 7 6 6
4 5 5 5 6 6 6 5 5 5 6 6 6 6 6 6 6 6 5 5 4 4 4 3 3 3 3 3 3 2 2 3 4 5 4 4 4 4 6 6 6 6 6 6 6
5 6 5 5 5 6 6 6 6 6 6 6 6 6 6 6 5 5 4 4 3 3 3 2 2 2 2 2 1 2 2 2 3 4 4 4 4 4 4 5 5 5 5 5 5
6 6 6 5 5 6 6 6 6 6 6 6 6 5 5 4 4 3 3 3 2 2 2 2 1 1 2 1 0 3 2 2 2 3 3 3 4 4 4 4 4 4 5 5 5
5 5 4 4 4 5 5 5 4 5 6 5 4 5 5 4 3 4 3 2 2 2 2 1 1 4 4 2 1 1 1 1 2 3 2 3 3 4 3 3 4 5 5 5 4
4 4 4 3 3 4 4 3 3 3 5 5 4 4 4 3 3 2 2 1 2 2 2 1 2 2 1 1 1 1 1 1 2 2 2 2 3 3 3 4 4 5 5 5 4
2 2 3 3 3 3 3 3 2 2 3 4 2 2 2 2 2 2 2 1 1 1 1 0 2 2 1 1 1 1 1 1 0 0 0 -0 1 2 3 3 3 4 4 4 3
1 1 2 3 3 2 2 2 2 2 2 2 2 1 1 1 2 1 1 1 1 1 0 -0 1 1 0 0 0 -0 0 -0 -1 -1 -2 -3 -4 -0 1 2 2 3 3 2 2
1 1 2 2 2 2 1 2 2 2 -3 1 1 0 -0 0 -0 0 -0 0 -0 -1 -1 -0 -1 -1 -1 -1 -1 -1 -1 -2 -2 -3 -4 -4 -3 1 0 0 1 1 0 1 1
1 1 1 2 1 1 1 1 1 1 -3 0 -0 0 1 0 0 0 -0 -0 -1 -1 -2 -1 -2 -2 -2 -2 -2 -2 -3 -3 -4 -4 -7 -3 -3 -1 -1 -1 -2 -1 -0 -0 -0
1 2 1 1 1 0 1 1 0 0 1 -1 -0 0 0 0 0 0 -1 -2 -3 -3 -3 -2 -2 -2 -2 -3 -3 -4 -5 -5 -5 -9 -6 -5 -5 -2 -2 -1 -2 -2 -2 -1 -1
1 1 1 1 0 0 -0 0 -0 -0 1 0 -0 -0 -1 -1 -3 -3 -3 -3 -3 -4 -4 -4 -4 -4 -4 -4 -5 -5 -6 -6 -5 -7 -8 -6 -6 -3 -3 -3 -4 -4 -4 -4 -3
1 1 0 0 -0 -0 -1 -2 -2 -3 -3 -3 -2 -3 -4 -4 -4 -5 -5 -5 -5 -5 -5 -5 -6 -5 -5 -5 -6 -7 -7 -9 -10 -8 -8 -5 -4 -4 -5 -5 -6 -7 -7 -6 -5
1 0 -0 -0 -1 -1 -2 -3 -3 -3 -4 -5 -6 -5 -6 -5 -6 -6 -5 -6 -6 -7 -8 -8 -8 -6 -6 -6 -6 -6 -7 -8 -9 -8 -7 -8 -6 -4 -6 -7 -7 -7 -7 -6 -6
-0 0 -1 -1 -1 -1 -3 -4 -4 -4 -5 -6 -6 -7 -7 -7 -8 -8 -6 -7 -7 -7 -8 -8 -8 -7 -7 -6 -6 -6 -7 -7 -8 -7 -8 -8 -6 -6 -7 -8 -8 -8 -7 -7 -7
-1 -1 -2 -2 -2 -3 -3 -4 -4 -5 -5 -7 -7 -8 -8 -7 -8 -8 -8 -8 -8 -8 -8 -8 -9 -8 -7 -7 -7 -7 -8 -8 -9 -9 -8 -8 -7 -5 -6 -7 -6 -7 -7 -8 -8
-3 -3 -3 -3 -3 -3 -4 -5 -6 -7 -7 -8 -8 -9 -8 -9 -9 -9 -9 -9 -9 -9 -9 -10 -9 -9 -8 -8 -8 -8 -7 -8 -9 -9 -9 -8 -7 -6 -6 -6 -7 -8 -8 -7 -7
-4 -4 -5 -5 -5 -6 -6 -6 -7 -8 -9 -9 -10 -10 -9 -10 -10 -10 -10 -10 -9 -9 -10 -10 -10 -10 -9 -9 -9 -10 -9 -9 -9 -9 -8 -8 -7 -7 -8 -9 -9 -9 -9 -9 -8
-5 -6 -6 -6 -6 -7 -8 -9 -10 -10 -11 -11 -11 -11 -11 -11 -11 -11 -11 -11 -10 -10 -10 -11 -11 -10 -10 -10 -10 -9 -9 -9 -9 -9 -10 -8 -9 -8 -8 -9 -10 -10 -9 -9 -9
-7 -7 -7 -6 -8 -9 -10 -10 -10 -11 -12 -11 -12 -12 -12 -12 -12 -12 -12 -12 -12 -11 -11 -11 -12 -12 -11 -10 -10 -10 -9 -9 -9 -9 -10 -9 -9 -9 -10 -10 -10 -10 -10 -9 -9
-8 -8 -8 -8 -9 -11 -10 -11 -12 -12 -12 -12 -12 -13 -11 -12 -12 -12 -12 -11 -11 -12 -11 -12 -13 -12 -12 -11 -11 -11 -9 -9 -9 -9 -10 -10 -10 -10 -10 -11 -11 -10 -10 -10 -10
Height
3134 3130 3127 3125 3122 3119 3117 3115 3113 3111 3108 3105 3102 3100 3099 3097 3095 3093 3092 3092 3090 3089 3088 3087 3088 3087 3086 3086 3087 3087 3084 3078 3078 3081 3081 3083 3084 3084 3084 3084 3085 3085 3087 3090 3090
3132 3129 3126 3123 3120 3117 3115 3112 3109 3107 3104 3102 3100 3097 3095 3093 3091 3089 3088 3086 3085 3085 3084 3083 3082 3082 3081 3080 3079 3077 3074 3072 3074 3076 3076 3077 3077 3078 3078 3078 3078 3080 3082 3084 3085
3131 3128 3125 3122 3118 3115 3112 3110 3107 3104 3102 3099 3096 3093 3091 3089 3087 3084 3083 3083 3082 3081 3080 3079 3078 3077 3075 3074 3073 3069 3065 3069 3070 3070 3071 3071 3071 3071 3071 3072 3075 3077 3077 3077 3078
3128 3125 3122 3118 3115 3112 3109 3106 3104 3101 3098 3096 3093 3090 3087 3086 3086 3081 3080 3078 3076 3075 3074 3073 3073 3071 3070 3068 3068 3062 3063 3063 3064 3065 3064 3064 3064 3063 3064 3068 3068 3069 3070 3070 3071
3125 3121 3118 3115 3112 3108 3105 3102 3099 3096 3093 3090 3088 3085 3083 3082 3082 3078 3076 3074 3073 3071 3069 3068 3067 3066 3064 3062 3060 3057 3058 3058 3058 3059 3057 3056 3056 3056 3057 3061 3061 3062 3062 3063 3064
3120 3116 3112 3108 3105 3102 3099 3095 3093 3090 3087 3084 3081 3078 3076 3075 3073 3072 3070 3068 3067 3066 3064 3064 3063 3061 3059 3058 3055 3052 3051 3051 3051 3052 3049 3049 3049 3047 3055 3054 3054 3054 3055 3055 3056
3115 3111 3106 3102 3098 3094 3091 3088 3085 3082 3079 3076 3073 3070 3068 3069 3066 3063 3062 3061 3060 3059 3060 3059 3059 3057 3054 3053 3049 3046 3044 3044 3044 3046 3044 3045 3036 3040 3049 3046 3045 3046 3046 3047 3048
3110 3105 3100 3095 3090 3086 3084 3082 3077 3075 3072 3068 3066 3063 3059 3058 3056 3055 3053 3052 3052 3053 3054 3053 3052 3051 3049 3048 3044 3043 3039 3036 3039 3041 3039 3040 3025 3038 3039 3039 3039 3039 3040 3041 3041
3104 3098 3092 3087 3081 3076 3073 3071 3069 3067 3064 3062 3060 3056 3054 3051 3050 3049 3049 3049 3048 3047 3046 3045 3044 3044 3043 3042 3040 3038 3032 3031 3034 3037 3033 3032 3024 3031 3033 3033 3033 3034 3035 3035 3036
3098 3093 3086 3080 3073 3068 3064 3062 3058 3057 3055 3052 3050 3051 3047 3046 3044 3044 3043 3042 3041 3039 3039 3038 3037 3036 3035 3037 3033 3032 3030 3028 3030 3031 3027 3023 3018 3024 3026 3026 3027 3027 3028 3028 3029
3092 3086 3080 3074 3068 3062 3059 3056 3055 3052 3048 3046 3043 3039 3037 3037 3037 3035 3034 3033 3032 3032 3031 3031 3031 3027 3031 3032 3032 3031 3028 3025 3026 3025 3020 3016 3009 3016 3019 3016 3018 3019 3020 3019 3017
3083 3079 3074 3069 3063 3059 3054 3050 3047 3045 3041 3038 3033 3030 3028 3027 3027 3028 3029 3030 3028 3028 3026 3028 3026 3028 3028 3029 3028 3027 3024 3021 3021 3019 3014 3008 2998 3003 3008 3005 3008 3010 3008 3006 3005
3075 3071 3068 3064 3058 3055 3051 3046 3043 3039 3036 3031 3028 3026 3027 3026 3025 3026 3027 3026 3027 3027 3026 3024 3026 3026 3025 3025 3024 3022 3020 3018 3017 3013 3008 3002 2987 2992 2995 2999 2999 2999 2998 2996 2995
3072 3066 3062 3061 3056 3051 3047 3043 3040 3036 3030 3030 3027 3026 3026 3025 3026 3026 3026 3028 3026 3026 3024 3023 3023 3023 3022 3021 3021 3014 3014 3013 3010 3009 3003 3001 2988 2984 2988 2992 2991 2989 2987 2986 2986
3069 3063 3059 3051 3052 3047 3045 3041 3037 3034 3035 3031 3027 3026 3025 3027 3027 3026 3025 3024 3024 3021 3023 3021 3018 3017 3015 3015 3015 3010 3007 3006 3005 3003 3000 2996 2999 2976 2983 2983 2981 2980 2979 2978 2979
3067 3060 3055 3051 3047 3044 3041 3038 3035 3035 3030 3030 3027 3025 3025 3024 3023 3023 3022 3022 3019 3016 3015 3015 3014 3012 3009 3008 3007 3006 3002 3002 2999 2998 2997 2989 2991 2975 2978 2977 2975 2976 2975 2974 2974
3064 3058 3052 3049 3045 3041 3038 3036 3036 3029 3031 3028 3025 3024 3022 3021 3020 3019 3017 3017 3018 3015 3010 3010 3007 3005 3003 3002 3001 3000 3001 3000 2995 2996 2987 2984 2986 2976 2976 2974 2976 2975 2971 2970 2970
3060 3055 3049 3045 3042 3038 3036 3034 3032 3029 3026 3026 3022 3021 3019 3016 3014 3013 3014 3013 3013 3012 3007 3003 3000 3001 3001 3001 3000 2998 2999 2999 2990 2989 2986 2983 2978 2975 2973 2973 2972 2972 2972 2970 2971
3056 3051 3046 3042 3038 3035 3035 3032 3030 3029 3024 3021 3020 3017 3015 3013 3014 3011 3010 3009 3008 3007 3008 3002 2997 2997 2997 2997 2999 2995 2995 2996 2994 2988 2986 2975 2973 2974 2971 2972 2970 2970 2971 2970 2971
3050 3046 3043 3038 3035 3031 3030 3030 3026 3024 3025 3021 3019 3019 3015 3014 3013 3011 3007 3005 3005 3004 3002 3002 2997 2994 2994 2994 2993 2992 2994 2994 2993 2988 2980 2972 2970 2967 2967 2968 2969 2969 2969 2967 2965
3046 3039 3038 3034 3031 3030 3027 3025 3024 3020 3020 3019 3016 3015 3014 3011 3009 3008 3006 3004 3002 2999 2999 2998 2995 2991 2989 2988 2987 2987 2985 2985 2985 2983 2978 2975 2968 2966 2965 2965 2966 2965 2964 2962 2960
3040 3035 3034 3030 3028 3026 3026 3024 3021 3017 3015 3014 3010 3009 3008 3007 3003 3004 3004 3001 2999 2996 2995 2995 2990 2983 2982 2981 2981 2980 2979 2980 2978 2975 2970 2968 2965 2962 2962 2962 2962 2959 2958 2957 2955
3034 3029 3027 3025 3023 3022 3021 3021 3016 3012 3010 3008 3007 3004 3004 3003 3003 2997 2997 2997 2996 2995 2993 2989 2986 2982 2977 2978 2976 2974 2973 2973 2972 2971 2967 2967 2962 2960 2962 2959 2959 2957 2955 2952 2950
3032 3026 3021 3016 3017 3015 3012 3011 3010 3008 3003 3002 3000 2999 2998 2996 2998 2993 2992 2991 2991 2990 2989 2985 2982 2981 2974 2974 2973 2972 2970 2968 2966 2964 2960 2958 2954 2957 2955 2954 2953 2951 2950 2948 2946
3028 3023 3018 3016 3011 3009 3006 3004 3001 2999 2999 2998 2996 2995 2995 2992 2990 2988 2987 2985 2984 2983 2982 2980 2974 2972 2969 2966 2965 2963 2961 2961 2959 2956 2956 2950 2949 2950 2949 2947 2947 2946 2945 2944 2942
3025 3020 3012 3008 3004 3002 3001 2999 2997 2994 2993 2993 2992 2990 2989 2987 2984 2979 2980 2978 2977 2975 2974 2973 2967 2965 2960 2959 2958 2954 2953 2953 2951 2948 2945 2944 2942 2944 2943 2943 2943 2942 2941 2939 2936
3014 3011 3006 3002 2998 2995 2995 2994 2991 2989 2988 2987 2986 2983 2981 2980 2977 2975 2973 2971 2971 2969 2967 2965 2964 2962 2954 2954 2952 2949 2946 2945 2943 2941 2940 2940 2941 2940 2940 2939 2939 2937 2934 2932 2930
Wind_Speed
18 17 17 17 18 17 17 17 17 17 18 17 17 18 19 19 20 20 19 19 19 22 23 21 20 20 22 24 26 29 32 40 40 38 38 34 31 28 26 25 26 30 29 25 23
19 20 20 20 20 19 19 19 18 18 17 18 18 19 20 20 20 20 22 21 17 13 14 14 16 18 21 24 27 31 37 40 38 36 36 35 33 29 29 28 29 27 26 25 23
21 21 22 22 22 22 22 22 21 21 20 20 19 19 20 20 20 15 10 16 19 22 22 22 22 23 25 27 30 33 39 35 35 35 34 34 33 31 30 30 28 25 24 24 26
27 27 27 26 25 26 26 24 23 24 24 24 24 24 24 22 18 17 25 25 22 21 21 21 23 25 26 29 29 35 34 34 34 34 34 35 35 36 36 31 30 29 26 27 28
27 28 28 28 28 28 28 28 28 27 27 27 27 27 28 27 25 28 27 24 22 22 21 20 20 22 25 26 27 33 32 33 33 33 34 36 35 34 34 29 29 30 31 30 30
28 28 28 28 29 30 31 31 32 32 31 31 31 31 32 32 29 28 29 26 26 24 19 17 20 22 25 27 29 32 32 31 29 27 32 35 35 36 26 29 32 32 31 31 30
31 32 32 32 32 30 29 29 31 32 33 33 34 34 35 34 34 32 31 32 28 25 20 19 22 25 27 26 29 32 34 33 34 32 34 33 43 39 28 30 30 29 29 29 28
38 38 36 35 36 37 35 32 32 32 31 31 32 34 36 35 34 32 29 23 20 19 22 27 31 28 28 28 32 30 32 34 29 26 27 27 44 30 24 23 24 24 24 23 24
44 44 44 42 42 40 38 36 37 36 36 35 34 33 32 21 15 15 14 17 20 25 32 36 30 28 28 30 32 29 33 34 33 29 31 31 38 29 24 24 22 22 22 23 23
47 46 43 38 39 39 39 37 35 36 36 36 33 22 17 20 24 28 31 33 37 34 33 32 29 30 32 31 27 29 29 29 27 25 29 34 40 32 30 32 31 32 32 33 33
46 45 41 38 37 36 35 31 28 29 27 29 30 32 31 35 36 35 35 31 28 23 21 20 22 24 18 20 26 28 31 34 30 31 37 38 45 39 35 36 35 33 31 33 35
47 43 39 36 35 33 29 29 27 27 26 25 22 21 20 21 22 18 13 12 11 12 14 16 19 15 14 16 21 25 30 33 33 31 32 37 49 47 43 45 40 33 33 34 36
49 46 38 33 32 30 28 24 23 24 26 17 11 4 5 5 5 5 6 7 10 12 13 15 13 14 17 21 22 26 30 35 36 38 41 43 54 40 22 11 19 29 34 31 34
44 42 39 32 29 26 25 22 22 23 15 6 7 6 7 7 4 6 7 7 8 10 14 12 9 13 20 29 28 35 33 32 31 27 17 14 13 32 29 20 22 22 34 33 26
38 36 35 34 27 24 23 21 19 21 6 8 6 2 6 7 6 7 9 17 20 21 22 22 27 26 27 26 24 31 31 29 27 25 24 20 9 26 26 31 30 30 23 10 7
36 33 30 30 25 20 21 22 21 6 4 7 7 8 11 13 18 22 25 26 26 24 21 23 20 24 29 34 33 31 29 27 25 20 6 16 15 20 10 8 4 9 11 10 8
35 32 30 26 22 21 21 19 8 3 6 6 9 14 20 26 30 31 29 19 15 16 20 30 32 25 22 21 21 21 20 5 4 1 6 4 9 19 20 16 10 4 9 6 8
35 31 27 25 24 21 19 16 5 6 9 19 25 26 29 28 16 10 12 18 20 22 27 15 7 5 13 16 15 11 5 4 5 2 4 4 7 2 7 8 9 10 12 10 8
32 29 27 26 24 22 18 5 4 8 12 18 29 21 4 6 11 18 15 20 15 5 6 10 6 15 25 21 18 7 6 7 6 13 4 8 10 3 7 4 4 7 8 12 11
32 28 25 23 26 25 18 6 10 15 19 24 21 9 11 20 22 20 17 9 10 4 11 8 15 10 9 11 15 9 9 5 6 4 4 4 6 7 6 6 12 13 17 22 26
33 31 26 26 26 26 16 10 12 16 18 14 15 22 28 29 14 9 7 13 5 15 23 24 12 14 19 21 18 17 20 14 10 9 3 2 5 8 8 11 6 17 28 31 27
34 30 24 28 31 19 15 19 24 24 24 22 23 19 16 16 22 22 13 11 17 27 26 16 16 23 25 22 20 24 24 22 10 5 10 5 7 15 8 4 18 29 34 28 24
37 32 30 34 16 23 26 24 26 25 22 16 15 22 27 28 18 9 11 17 15 16 11 16 7 13 6 9 9 15 16 10 13 23 10 4 4 6 20 25 32 33 27 25 22
38 31 34 31 29 30 26 20 20 19 22 18 16 15 14 13 14 11 14 20 15 20 21 20 18 19 14 19 18 22 21 19 14 13 21 24 34 33 30 30 25 18 16 17 20
38 34 38 30 34 30 27 24 19 17 13 9 9 13 17 20 22 27 25 25 31 31 25 22 22 24 29 32 27 27 32 27 31 33 24 37 35 35 35 20 12 12 16 15 18
35 36 36 40 35 33 24 21 17 15 16 18 22 14 19 25 28 32 26 26 27 25 24 26 22 22 34 30 29 30 31 33 32 34 35 33 37 26 12 13 13 15 18 20 23
39 37 38 39 35 31 27 20 18 16 10 18 17 22 24 19 18 19 24 25 24 29 29 31 24 19 23 24 24 18 21 16 17 20 17 17 14 9 13 13 14 20 25 25 18
Wind_Direction
330 329 326 324 322 320 317 314 310 307 306 302 297 296 296 293 290 287 285 281 280 282 276 269 266 261 259 256 257 256 246 255 259 261 265 270 272 273 271 265 262 261 262 266 264
326 324 324 322 320 319 317 314 312 311 308 305 304 303 299 295 293 294 290 286 277 269 275 267 268 265 259 255 247 245 248 260 267 266 267 270 272 274 270 269 263 260 261 266 264
323 320 319 317 317 315 314 313 312 309 307 306 304 302 301 302 298 292 294 296 287 284 282 275 271 269 263 259 254 253 256 267 268 272 272 272 272 272 270 265 271 276 269 261 259
322 320 318 315 313 312 311 309 308 307 305 304 302 301 300 301 301 297 305 302 288 281 276 274 275 272 271 267 266 258 268 268 270 270 270 270 271 270 268 269 271 270 264 259 262
319 317 314 311 308 305 302 301 300 298 297 296 295 293 293 292 294 292 296 298 293 289 278 274 275 275 271 270 265 265 272 270 270 272 272 271 271 270 268 270 269 269 271 272 271
318 315 311 308 305 304 303 302 300 299 297 294 291 289 288 289 292 291 291 289 286 283 267 275 282 279 272 272 267 271 273 272 269 270 269 271 271 267 272 275 276 273 272 271 270
323 322 319 316 313 310 308 304 303 300 297 293 291 289 287 291 290 289 285 285 278 271 260 277 288 283 275 274 270 269 269 269 269 272 271 276 273 273 284 277 273 269 266 266 267
319 316 312 309 307 307 305 303 302 302 301 297 295 291 291 290 289 286 281 272 264 255 267 279 288 277 270 269 266 268 272 273 274 275 274 272 270 283 288 279 274 272 270 266 263
324 318 315 313 307 302 300 302 303 304 302 298 293 292 292 289 284 277 268 265 264 267 275 282 278 268 266 263 265 266 265 270 277 281 280 276 278 290 288 283 276 271 272 271 269
325 320 318 319 312 307 304 302 301 299 299 299 296 289 281 274 280 279 275 276 279 279 279 277 268 264 262 256 249 269 269 281 285 288 283 284 283 285 286 283 282 280 280 279 276
325 321 323 323 318 315 312 313 311 307 303 303 290 284 280 280 280 277 281 281 276 275 277 272 262 268 303 286 275 278 277 279 283 287 287 287 287 287 286 280 282 282 281 278 274
327 325 324 326 323 321 323 324 321 315 316 307 294 288 286 281 278 279 274 272 278 277 271 267 279 299 276 274 275 277 277 280 292 290 288 291 286 288 286 286 288 285 271 268 266
325 324 325 327 324 323 326 325 322 320 320 311 340 13 353 319 319 316 304 299 289 291 291 275 277 284 290 292 296 291 284 289 288 290 289 291 290 297 297 296 280 282 283 273 263
324 325 328 329 325 328 331 334 329 328 317 323 349 1 350 346 349 351 331 307 302 307 310 298 284 288 292 297 301 295 297 291 288 289 284 286 292 289 296 296 295 280 283 278 274
325 328 330 329 331 335 334 334 330 331 344 332 337 318 351 359 335 340 334 315 308 302 295 285 292 296 292 294 295 291 295 290 286 285 287 278 246 289 292 291 274 267 272 253 267
329 329 331 327 328 336 336 333 329 322 265 323 314 304 311 312 315 312 311 306 302 297 291 296 296 299 294 293 285 279 281 287 284 272 261 279 231 290 297 298 287 276 287 298 302
332 333 334 331 332 334 335 335 321 208 312 296 292 301 305 304 303 302 300 297 300 306 295 298 303 297 288 290 286 280 273 302 267 179 233 296 212 255 276 271 303 38 71 57 45
333 334 336 332 332 336 333 331 259 263 275 287 294 299 306 305 301 287 296 300 297 293 294 297 304 309 311 308 294 291 222 216 278 253 288 308 238 291 17 98 103 38 25 28 9
334 337 342 335 338 340 337 329 284 292 289 297 302 312 297 271 303 309 316 303 290 269 271 306 277 303 307 298 288 281 253 259 285 275 237 239 251 266 168 143 42 12 5 358 352
336 343 347 338 337 335 334 304 255 274 286 298 308 280 297 300 302 301 303 280 315 298 356 330 311 303 295 312 308 304 313 245 234 273 252 297 271 197 151 358 347 353 335 324 318
338 342 347 342 339 333 324 312 293 298 300 300 287 286 288 297 295 297 260 308 303 305 326 327 297 282 285 283 274 266 267 253 235 226 244 284 267 163 296 328 333 324 323 318 314
341 346 344 342 338 337 335 324 313 309 303 302 294 294 288 272 297 300 284 268 289 304 310 304 284 264 270 275 268 263 263 258 236 226 223 224 253 298 295 289 296 321 317 311 315
340 343 340 336 340 327 318 311 305 300 297 278 276 287 295 294 296 274 266 288 291 300 302 306 278 311 284 257 275 269 268 257 280 264 256 236 247 270 298 289 299 298 296 299 305
340 340 334 331 329 323 319 314 307 300 292 287 280 290 263 304 277 263 273 290 278 290 303 305 284 273 271 301 296 287 272 259 282 247 257 252 273 280 293 301 297 291 295 297 299
335 331 326 320 322 320 319 319 319 313 302 289 276 291 285 290 279 285 289 283 286 292 294 299 283 285 284 288 289 286 282 273 283 274 256 274 272 281 298 299 299 300 305 305 305
328 326 319 318 320 319 317 317 314 312 314 300 290 287 284 290 286 284 286 285 295 300 295 296 282 286 294 303 300 287 284 279 276 281 275 276 278 287 275 294 299 299 309 313 313
320 318 315 313 314 308 310 314 301 305 309 314 306 299 288 292 296 293 288 286 285 291 290 287 283 285 285 297 301 271 285 284 291 293 287 265 294 275 294 297 299 309 316 316 311